sat.trackr.live / text

‹ back to catalog

STARLINK-35411

NORAD 66560 · 2025-268D

PAYLOAD ACTIVE UNKNOWN

§ Identity

Operator
Country
US
Launch date
2025-11-21
Launch site
AFETR
Launch vehicle
Mass (kg)
RCS (m²)

Purposes: comms

External: N2YO · Heavens-Above · Gunter

§ Orbital elements

Epoch: 2026-09-20T12:07:21.411552Z

Period
94.27 min
Inclination
43.0049°
Eccentricity
0.0001793
Mean motion
15.27587877 rev/d
Perigee alt
481.8 km
Apogee alt
484.3 km
Semi-major
6,861.2 km
B*
3.4988e-4
RAAN
326.9041°
Arg perigee
280.1545°
Mean anomaly
79.9104°
Rev number
4,775

§ Raw data

STARLINK-354111 66560U 25268D   26263.50510893  .00009380  00000+0  34988-3 0  99902 66560  43.0049 326.9041 0001793 280.1545  79.9104 15.27587877 47755

JSON: /api/v1/satellites/66560 · /tle

For live sub-satellite position, see the globe view (requires WebGL).

§ Visibility from observer

Set your observer location to see the next 7 days of passes ≥ 10°. The values pass through the URL so the page stays shareable.

No JS? Fill the form by hand. The geolocation button needs JavaScript.